EUTELSAT 5 WEST B (44624 NORAD) Tracking and Keplerian Element Data

This shows tracking and keplerian element data for the satellite.

Feedback or suggestion? Click here.




ElementValue
Catalog44624
NameEUTELSAT 5 WEST B
Epoch Orbit25
Epoch Day311.66455359
Epoch Year2019
RAAN305.5272
Inclination0.0122
Eccentricity7.89E-05
Argument of Perigee205.5066
Mean Anonmoly136.2953
Mean Motion1.00269181
Decay Rate9E-08
L11 44624U 19067A 19311.66455359 .00000009 00000-0 00000+0 0 9999
L22 44624 0.0122 305.5272 0000789 205.5066 136.2953 1.00269181 253

Live tracking and technical data element details for EUTELSAT 5 WEST B (NORAD 44624). EUTELSAT 5 WEST B can be tracked NOW for your location showing map with azimuth and elevation plus other details from your city location.

Track the satellite on the map from your city or location and see movement details for azimuth, elevation, latitude, longitude, range, height, and movement on the map or in text.







IsCatalogInMostPopularTable: catalog: 44624, numindb: 9
Update: records affected: 1



GetName: 44624 EUTELSAT 5 WEST B

Hit Count: updated at: Thu, 14 Nov 2019 06:14:56 GMT